This is the latest recevied weather packets stored in our database for station/object HS5FXK-3. If no packets are shown the sender has not sent any weather packets the latest 10 day(s).
| Time | Temp. | Humidity | Pressure | Rain* | Wind** | Luminosity | Snow |
|---|---|---|---|---|---|---|---|
| 1778193810 | 27.22° C | 99% | 979 hPa | - | - | 0 W/m² | - |
| 1778192898 | 26.67° C | 99% | 979 hPa | - | - | 0 W/m² | - |
| 1778191986 | 27.22° C | 99% | 979 hPa | - | - | 0 W/m² | - |
| 1778191073 | 27.22° C | 99% | 979 hPa | - | - | 0 W/m² | - |
| 1778190161 | 27.22° C | 99% | 979 hPa | - | - | 0 W/m² | - |
| 1778189249 | 27.22° C | 99% | 979 hPa | - | - | 0 W/m² | - |
| 1778188337 | 27.22° C | 99% | 978 hPa | - | - | 0 W/m² | - |
| 1778187425 | 27.22° C | 99% | 978 hPa | - | - | 0 W/m² | - |
| 1778186512 | 26.11° C | 99% | 978 hPa | - | - | 0 W/m² | - |
| 1778185600 | 27.22° C | 99% | 978 hPa | - | - | 0 W/m² | - |
| 1778184688 | 27.22° C | 99% | 978 hPa | - | - | 0 W/m² | - |
| 1778183776 | 27.22° C | 99% | 978 hPa | - | - | 0 W/m² | - |
| 1778183371 | 27.22° C | 99% | 978 hPa | - | - | 0 W/m² | - |
| 1778182459 | 27.22° C | 99% | 978 hPa | - | - | 0 W/m² | - |
| 1778181546 | 27.22° C | 99% | 978 hPa | - | - | 0 W/m² | - |
| 1778180634 | 27.22° C | 99% | 978 hPa | - | - | 0 W/m² | - |
| 1778179722 | 27.22° C | 98% | 978 hPa | - | - | 0 W/m² | - |
| 1778178809 | 27.22° C | 94% | 978 hPa | - | - | 0 W/m² | - |
| 1778177897 | 27.78° C | 94% | 979 hPa | - | - | 0 W/m² | - |
| 1778176985 | 27.78° C | 91% | 979 hPa | - | - | 0 W/m² | - |
| 1778176072 | 27.78° C | 88% | 979 hPa | - | - | 0 W/m² | - |
| 1778175160 | 27.78° C | 89% | 979 hPa | - | - | 0 W/m² | - |
| 1778174248 | 27.78° C | 88% | 980 hPa | - | - | 0 W/m² | - |
| 1778173336 | 27.78° C | 87% | 980 hPa | - | - | 0 W/m² | - |
| 1778172423 | 28.33° C | 85% | 980 hPa | - | - | 0 W/m² | - |
* Rain since midnight (hover to see other rain measurements)
** Current wind speed in m/s (hover to see current wind gust speed)